When you browse on this site, cookies collect data to enhance your experience and personalize the content and advertising you see.
Visit our Privacy Policy to learn more. By continuing to use the site, you agree to this use of cookies and data.
  • In Spain
  • List of Countries
  • For 7 days
  • Water Temperature
  • Satellite Maps
  • Weather Map
  • Weather Widgets
  • user-avatar
    Login

    Hourly Weather Agra

    Today, 19 April, Friday

    Time Temperature Precipitation Wind Pressure Humidity
    00:00 +28°C° 0 mm 1 mps 742 mmHg 40%
    01:00 +28°C° 0 mm 1 mps 742 mmHg 41%
    02:00 +28°C° 0 mm 1 mps 742 mmHg 42%
    03:00 +27°C° 0 mm 1 mps 742 mmHg 43%
    04:00 +27°C° 0 mm 1 mps 742 mmHg 44%
    05:00 +27°C° 0 mm 1 mps 741 mmHg 44%
    06:00 +28°C° 0 mm 1 mps 742 mmHg 42%
    07:00 +29°C° 0 mm 1 mps 742 mmHg 39%
    08:00 +30°C° 0 mm 1 mps 743 mmHg 36%
    09:00 +31°C° 0 mm 2 mps 743 mmHg 33%
    10:00 +32°C° 0 mm 2 mps 743 mmHg 29%
    11:00 +34°C° 0 mm 3 mps 743 mmHg 26%
    12:00 +35°C° 0 mm 3 mps 742 mmHg 25%
    13:00 +35°C° 0 mm 3 mps 741 mmHg 23%
    14:00 +36°C° 0 mm 3 mps 741 mmHg 22%
    15:00 +36°C° 0 mm 3 mps 740 mmHg 22%
    16:00 +36°C° 0 mm 3 mps 740 mmHg 21%
    17:00 +36°C° 0 mm 3 mps 740 mmHg 21%
    18:00 +35°C° 0 mm 3 mps 740 mmHg 22%
    19:00 +34°C° 0 mm 2 mps 740 mmHg 24%
    20:00 +32°C° 0 mm 2 mps 740 mmHg 25%
    21:00 +32°C° 0 mm 2 mps 740 mmHg 26%
    22:00 +31°C° 0 mm 2 mps 740 mmHg 27%
    23:00 +31°C° 0 mm 2 mps 740 mmHg 27%

    Tomorrow, 20 April, Saturday

    Time Temperature Precipitation Wind Pressure Humidity
    00:00 +30°C° 0 mm 2 mps 740 mmHg 28%
    01:00 +30°C° 0 mm 2 mps 740 mmHg 29%
    02:00 +29°C° 0 mm 2 mps 739 mmHg 30%
    03:00 +29°C° 0 mm 2 mps 739 mmHg 31%
    04:00 +28°C° 0 mm 2 mps 739 mmHg 32%
    05:00 +28°C° 0 mm 2 mps 739 mmHg 34%
    06:00 +29°C° 0 mm 2 mps 740 mmHg 31%
    07:00 +31°C° 0 mm 2 mps 740 mmHg 29%
    08:00 +32°C° 0 mm 2 mps 741 mmHg 27%
    09:00 +34°C° 0 mm 2 mps 741 mmHg 24%
    10:00 +35°C° 0 mm 1 mps 741 mmHg 22%
    11:00 +36°C° 0 mm 1 mps 741 mmHg 19%
    12:00 +38°C° 0 mm 2 mps 740 mmHg 18%
    13:00 +38°C° 0 mm 2 mps 740 mmHg 17%
    14:00 +39°C° 0 mm 2 mps 739 mmHg 16%
    15:00 +39°C° 0 mm 2 mps 738 mmHg 15%
    16:00 +39°C° 0 mm 3 mps 738 mmHg 15%
    17:00 +39°C° 0 mm 3 mps 738 mmHg 15%
    18:00 +38°C° 0 mm 2 mps 738 mmHg 16%
    19:00 +37°C° 0 mm 2 mps 738 mmHg 17%
    20:00 +35°C° 0 mm 1 mps 739 mmHg 18%
    21:00 +34°C° 0 mm 1 mps 739 mmHg 19%
    22:00 +34°C° 0 mm 1 mps 739 mmHg 20%
    23:00 +33°C° 0 mm 1 mps 739 mmHg 21%

    Day after tomorrow, 21 April, Sunday

    Time Temperature Precipitation Wind Pressure Humidity
    00:00 +33°C° 0 mm 1 mps 739 mmHg 21%
    01:00 +32°C° 0 mm 2 mps 738 mmHg 22%
    02:00 +31°C° 0 mm 2 mps 738 mmHg 23%
    03:00 +31°C° 0 mm 2 mps 738 mmHg 23%
    04:00 +30°C° 0 mm 1 mps 738 mmHg 24%
    05:00 +30°C° 0 mm 1 mps 738 mmHg 25%
    06:00 +31°C° 0 mm 1 mps 738 mmHg 23%
    07:00 +33°C° 0 mm 1 mps 739 mmHg 21%
    08:00 +35°C° 0 mm 1 mps 740 mmHg 19%
    09:00 +36°C° 0 mm 1 mps 740 mmHg 17%
    10:00 +39°C° 0 mm 2 mps 740 mmHg 15%
    11:00 +40°C° 0 mm 3 mps 740 mmHg 13%
    12:00 +42°C° 0 mm 3 mps 739 mmHg 13%
    13:00 +43°C° 0 mm 4 mps 738 mmHg 12%
    14:00 +44°C° 0 mm 4 mps 737 mmHg 11%
    15:00 +43°C° 0 mm 4 mps 737 mmHg 11%
    16:00 +43°C° 0 mm 4 mps 737 mmHg 11%
    17:00 +43°C° 0 mm 3 mps 736 mmHg 11%
    18:00 +41°C° 0 mm 2 mps 737 mmHg 12%
    19:00 +39°C° 0 mm 2 mps 737 mmHg 13%
    20:00 +37°C° 0 mm 1 mps 738 mmHg 14%
    21:00 +36°C° 0 mm 1 mps 738 mmHg 15%
    22:00 +36°C° 0 mm 1 mps 738 mmHg 16%
    23:00 +33°C° 0 mm 0 mps 738 mmHg 16%

    22 April, Monday

    Time Temperature Precipitation Wind Pressure Humidity
    00:00 +34°C° 0 mm 1 mps 737 mmHg 17%
    01:00 +34°C° 0 mm 1 mps 737 mmHg 17%
    02:00 +33°C° 0 mm 1 mps 736 mmHg 18%
    03:00 +33°C° 0 mm 1 mps 737 mmHg 18%
    04:00 +32°C° 0 mm 2 mps 737 mmHg 19%
    05:00 +32°C° 0 mm 2 mps 737 mmHg 19%
    06:00 +34°C° 0 mm 2 mps 738 mmHg 18%
    07:00 +36°C° 0 mm 2 mps 738 mmHg 16%
    08:00 +36°C° 0 mm 1 mps 739 mmHg 15%
    09:00 +39°C° 0 mm 2 mps 739 mmHg 13%
    10:00 +42°C° 0 mm 3 mps 739 mmHg 11%
    11:00 +44°C° 0 mm 4 mps 739 mmHg 10%
    12:00 +46°C° 0 mm 5 mps 738 mmHg 9%
    13:00 +46°C° 0 mm 5 mps 738 mmHg 8%
    14:00 +47°C° 0 mm 5 mps 737 mmHg 8%
    15:00 +47°C° 0 mm 5 mps 737 mmHg 8%
    16:00 +46°C° 0 mm 5 mps 737 mmHg 9%
    17:00 +46°C° 0 mm 5 mps 737 mmHg 10%
    18:00 +43°C° 0 mm 4 mps 737 mmHg 11%
    19:00 +42°C° 0 mm 3 mps 737 mmHg 12%
    20:00 +39°C° 0 mm 2 mps 738 mmHg 14%
    21:00 +39°C° 0 mm 2 mps 738 mmHg 14%
    22:00 +38°C° 0 mm 3 mps 738 mmHg 15%
    23:00 +37°C° 0 mm 3 mps 738 mmHg 15%

    23 April, Tuesday

    Time Temperature Precipitation Wind Pressure Humidity
    00:00 +37°C° 0 mm 3 mps 738 mmHg 16%
    01:00 +36°C° 0 mm 3 mps 737 mmHg 16%
    02:00 +36°C° 0 mm 3 mps 737 mmHg 17%
    03:00 +35°C° 0 mm 2 mps 737 mmHg 18%
    04:00 +34°C° 0 mm 2 mps 737 mmHg 19%
    05:00 +32°C° 0 mm 2 mps 738 mmHg 21%
    06:00 +34°C° 0 mm 1 mps 738 mmHg 19%
    07:00 +36°C° 0 mm 1 mps 739 mmHg 18%
    08:00 +37°C° 0 mm 1 mps 740 mmHg 16%
    09:00 +40°C° 0 mm 1 mps 740 mmHg 15%
    10:00 +42°C° 0 mm 2 mps 740 mmHg 13%
    11:00 +44°C° 0 mm 3 mps 740 mmHg 12%
    12:00 +45°C° 0 mm 4 mps 739 mmHg 11%
    13:00 +47°C° 0 mm 4 mps 738 mmHg 10%
    14:00 +48°C° 0 mm 5 mps 738 mmHg 9%
    15:00 +48°C° 0 mm 5 mps 737 mmHg 9%
    16:00 +47°C° 0 mm 5 mps 737 mmHg 9%
    17:00 +47°C° 0 mm 5 mps 737 mmHg 9%
    18:00 +45°C° 0 mm 4 mps 737 mmHg 11%
    19:00 +43°C° 0 mm 3 mps 738 mmHg 12%
    20:00 +41°C° 0 mm 2 mps 738 mmHg 13%
    21:00 +40°C° 0 mm 2 mps 738 mmHg 14%
    22:00 +39°C° 0 mm 2 mps 738 mmHg 14%
    23:00 +38°C° 0 mm 2 mps 738 mmHg 15%

    24 April, Wednesday

    Time Temperature Precipitation Wind Pressure Humidity
    00:00 +37°C° 0 mm 1 mps 738 mmHg 16%
    01:00 +36°C° 0 mm 1 mps 738 mmHg 17%
    02:00 +35°C° 0 mm 1 mps 737 mmHg 18%
    03:00 +35°C° 0 mm 1 mps 738 mmHg 18%
    04:00 +34°C° 0 mm 1 mps 738 mmHg 19%
    05:00 +35°C° 0 mm 2 mps 738 mmHg 19%
    06:00 +36°C° 0 mm 2 mps 739 mmHg 18%
    07:00 +38°C° 0 mm 2 mps 740 mmHg 16%
    08:00 +39°C° 0 mm 2 mps 740 mmHg 15%
    09:00 +42°C° 0 mm 3 mps 740 mmHg 13%
    10:00 +44°C° 0 mm 4 mps 740 mmHg 11%
    11:00 +47°C° 0 mm 5 mps 740 mmHg 8%
    12:00 +48°C° 0 mm 5 mps 740 mmHg 8%
    13:00 +49°C° 0 mm 5 mps 739 mmHg 7%
    14:00 +49°C° 0 mm 5 mps 738 mmHg 7%
    15:00 +49°C° 0 mm 5 mps 738 mmHg 7%
    16:00 +48°C° 0 mm 5 mps 737 mmHg 7%
    17:00 +48°C° 0 mm 4 mps 737 mmHg 7%
    18:00 +46°C° 0 mm 3 mps 737 mmHg 8%
    19:00 +45°C° 0 mm 3 mps 738 mmHg 9%
    20:00 +42°C° 0 mm 2 mps 738 mmHg 10%
    21:00 +42°C° 0 mm 1 mps 738 mmHg 11%
    22:00 +41°C° 0 mm 1 mps 739 mmHg 12%
    23:00 +37°C° 0 mm 0 mps 739 mmHg 13%
    Show more